When you browse on this site, cookies collect data to enhance your experience and personalize the content and advertising you see.
Visit our Privacy Policy to learn more. By continuing to use the site, you agree to this use of cookies and data.
  • în România
  • Lista ţărilor
  • Pe 7 zile
  • Temperatura apei
  • Hartă satelitară
  • Meteo pe hartă
  • Widget-uri
  • user-avatar
    Intrare

    Meteo pe oră la Djelfa

    Astăzi, 19 Iunie, Miercuri

    Timp Temperatura Precipitaţii Vânt Presiune Umiditate
    00:00 +27°C° 0 mm 6 m/s 666 mmHg 25%
    01:00 +26°C° 0 mm 6 m/s 666 mmHg 26%
    02:00 +26°C° 0 mm 5 m/s 666 mmHg 27%
    03:00 +25°C° 0 mm 5 m/s 666 mmHg 28%
    04:00 +26°C° 0 mm 5 m/s 666 mmHg 28%
    05:00 +26°C° 0 mm 5 m/s 666 mmHg 28%
    06:00 +26°C° 0 mm 5 m/s 667 mmHg 28%
    07:00 +28°C° 0 mm 6 m/s 667 mmHg 25%
    08:00 +30°C° 0 mm 6 m/s 668 mmHg 22%
    09:00 +33°C° 0 mm 7 m/s 668 mmHg 19%
    10:00 +35°C° 0 mm 7 m/s 668 mmHg 17%
    11:00 +36°C° 0 mm 7 m/s 669 mmHg 16%
    12:00 +38°C° 0 mm 6 m/s 669 mmHg 14%
    13:00 +38°C° 0 mm 6 m/s 668 mmHg 14%
    14:00 +37°C° 0 mm 5 m/s 667 mmHg 14%
    15:00 +36°C° 0 mm 4 m/s 667 mmHg 14%
    16:00 +36°C° 0 mm 4 m/s 667 mmHg 14%
    17:00 +36°C° 0 mm 5 m/s 667 mmHg 13%
    18:00 +36°C° 0 mm 5 m/s 667 mmHg 12%
    19:00 +35°C° 0 mm 5 m/s 667 mmHg 14%
    20:00 +34°C° 0 mm 6 m/s 667 mmHg 15%
    21:00 +32°C° 0 mm 6 m/s 667 mmHg 17%
    22:00 +30°C° 0 mm 6 m/s 667 mmHg 18%
    23:00 +29°C° 0 mm 6 m/s 666 mmHg 20%

    Mâine, 20 Iunie, Joi

    Timp Temperatura Precipitaţii Vânt Presiune Umiditate
    00:00 +28°C° 0 mm 6 m/s 666 mmHg 22%
    01:00 +28°C° 0 mm 6 m/s 666 mmHg 22%
    02:00 +27°C° 0 mm 6 m/s 665 mmHg 22%
    03:00 +27°C° 0 mm 6 m/s 665 mmHg 22%
    04:00 +27°C° 0 mm 6 m/s 666 mmHg 21%
    05:00 +28°C° 0 mm 6 m/s 666 mmHg 20%
    06:00 +28°C° 0 mm 6 m/s 666 mmHg 19%
    07:00 +30°C° 0 mm 7 m/s 667 mmHg 17%
    08:00 +33°C° 0 mm 8 m/s 667 mmHg 15%
    09:00 +34°C° 0 mm 9 m/s 668 mmHg 14%
    10:00 +37°C° 0 mm 9 m/s 668 mmHg 13%
    11:00 +38°C° 0 mm 9 m/s 668 mmHg 12%
    12:00 +39°C° 0 mm 8 m/s 668 mmHg 11%
    13:00 +39°C° 0 mm 8 m/s 667 mmHg 10%
    14:00 +39°C° 0 mm 8 m/s 667 mmHg 10%
    15:00 +39°C° 0 mm 8 m/s 666 mmHg 10%
    16:00 +39°C° 0 mm 8 m/s 666 mmHg 10%
    17:00 +38°C° 0 mm 8 m/s 666 mmHg 10%
    18:00 +38°C° 0 mm 7 m/s 666 mmHg 10%
    19:00 +35°C° 0 mm 7 m/s 666 mmHg 11%
    20:00 +33°C° 0 mm 7 m/s 666 mmHg 12%
    21:00 +32°C° 0 mm 7 m/s 666 mmHg 12%
    22:00 +30°C° 0 mm 7 m/s 666 mmHg 13%
    23:00 +30°C° 0 mm 7 m/s 665 mmHg 13%

    Poimâine, 21 Iunie, Vineri

    Timp Temperatura Precipitaţii Vânt Presiune Umiditate
    00:00 +29°C° 0 mm 7 m/s 665 mmHg 13%
    01:00 +29°C° 0 mm 7 m/s 665 mmHg 13%
    02:00 +28°C° 0 mm 6 m/s 665 mmHg 13%
    03:00 +28°C° 0 mm 6 m/s 665 mmHg 13%
    04:00 +28°C° 0 mm 6 m/s 665 mmHg 13%
    05:00 +28°C° 0 mm 6 m/s 666 mmHg 13%
    06:00 +29°C° 0 mm 6 m/s 666 mmHg 13%
    07:00 +30°C° 0 mm 7 m/s 667 mmHg 12%
    08:00 +33°C° 0 mm 8 m/s 667 mmHg 11%
    09:00 +35°C° 0 mm 9 m/s 667 mmHg 10%
    10:00 +38°C° 0 mm 9 m/s 667 mmHg 9%
    11:00 +39°C° 0 mm 10 m/s 667 mmHg 9%
    12:00 +42°C° 0 mm 10 m/s 667 mmHg 8%
    13:00 +42°C° 0 mm 10 m/s 667 mmHg 8%
    14:00 +42°C° 0 mm 10 m/s 666 mmHg 8%
    15:00 +42°C° 0 mm 10 m/s 666 mmHg 8%
    16:00 +40°C° 0 mm 10 m/s 666 mmHg 8%
    17:00 +40°C° 0 mm 9 m/s 666 mmHg 8%
    18:00 +39°C° 0 mm 9 m/s 666 mmHg 9%
    19:00 +37°C° 0 mm 8 m/s 666 mmHg 11%
    20:00 +34°C° 0 mm 7 m/s 666 mmHg 13%
    21:00 +32°C° 0 mm 6 m/s 666 mmHg 15%
    22:00 +30°C° 0 mm 5 m/s 665 mmHg 17%
    23:00 +29°C° 0 mm 4 m/s 665 mmHg 18%

    22 Iunie, Sâmbătă

    Timp Temperatura Precipitaţii Vânt Presiune Umiditate
    00:00 +27°C° 0 mm 3 m/s 665 mmHg 20%
    01:00 +27°C° 0 mm 3 m/s 665 mmHg 21%
    02:00 +26°C° 0 mm 3 m/s 664 mmHg 22%
    03:00 +25°C° 0 mm 2 m/s 664 mmHg 22%
    04:00 +26°C° 0 mm 3 m/s 665 mmHg 20%
    05:00 +27°C° 0 mm 3 m/s 665 mmHg 19%
    06:00 +28°C° 0 mm 4 m/s 666 mmHg 17%
    07:00 +32°C° 0 mm 6 m/s 667 mmHg 14%
    08:00 +34°C° 0 mm 8 m/s 667 mmHg 12%
    09:00 +37°C° 0 mm 11 m/s 667 mmHg 9%
    10:00 +38°C° 0 mm 11 m/s 667 mmHg 10%
    11:00 +41°C° 0 mm 11 m/s 667 mmHg 9%
    12:00 +42°C° 0 mm 11 m/s 667 mmHg 8%
    13:00 +42°C° 0 mm 11 m/s 666 mmHg 8%
    14:00 +42°C° 0 mm 10 m/s 666 mmHg 8%
    15:00 +42°C° 0 mm 10 m/s 665 mmHg 8%
    16:00 +40°C° 0 mm 10 m/s 665 mmHg 8%
    17:00 +39°C° 0 mm 9 m/s 665 mmHg 9%
    18:00 +39°C° 0 mm 9 m/s 665 mmHg 9%
    19:00 +37°C° 0 mm 9 m/s 665 mmHg 10%
    20:00 +35°C° 0 mm 8 m/s 666 mmHg 11%
    21:00 +34°C° 0 mm 8 m/s 666 mmHg 12%
    22:00 +33°C° 0 mm 8 m/s 666 mmHg 13%
    23:00 +32°C° 0 mm 8 m/s 666 mmHg 13%

    23 Iunie, Duminică

    Timp Temperatura Precipitaţii Vânt Presiune Umiditate
    00:00 +31°C° 0 mm 8 m/s 665 mmHg 14%
    01:00 +31°C° 0 mm 8 m/s 665 mmHg 15%
    02:00 +29°C° 0 mm 8 m/s 665 mmHg 15%
    03:00 +29°C° 0 mm 8 m/s 665 mmHg 15%
    04:00 +29°C° 0 mm 8 m/s 666 mmHg 14%
    05:00 +29°C° 0 mm 9 m/s 666 mmHg 14%
    06:00 +31°C° 0 mm 9 m/s 666 mmHg 13%
    07:00 +32°C° 0 mm 10 m/s 667 mmHg 12%
    08:00 +34°C° 0 mm 12 m/s 667 mmHg 10%
    09:00 +37°C° 0 mm 13 m/s 668 mmHg 9%
    10:00 +38°C° 0 mm 13 m/s 668 mmHg 8%
    11:00 +39°C° 0 mm 13 m/s 668 mmHg 8%
    12:00 +41°C° 0 mm 13 m/s 668 mmHg 7%
    13:00 +41°C° 0 mm 13 m/s 668 mmHg 7%
    14:00 +41°C° 0 mm 12 m/s 667 mmHg 7%
    15:00 +41°C° 0 mm 12 m/s 667 mmHg 7%
    16:00 +39°C° 0 mm 11 m/s 667 mmHg 7%
    17:00 +39°C° 0 mm 11 m/s 667 mmHg 8%
    18:00 +38°C° 0 mm 10 m/s 667 mmHg 9%
    19:00 +35°C° 0 mm 9 m/s 667 mmHg 10%
    20:00 +34°C° 0 mm 8 m/s 667 mmHg 11%
    21:00 +32°C° 0 mm 8 m/s 668 mmHg 12%
    22:00 +30°C° 0 mm 7 m/s 667 mmHg 13%
    23:00 +29°C° 0 mm 7 m/s 667 mmHg 13%

    24 Iunie, Luni

    Timp Temperatura Precipitaţii Vânt Presiune Umiditate
    00:00 +29°C° 0 mm 6 m/s 667 mmHg 14%
    01:00 +28°C° 0 mm 6 m/s 667 mmHg 14%
    02:00 +28°C° 0 mm 5 m/s 667 mmHg 15%
    03:00 +27°C° 0 mm 5 m/s 667 mmHg 16%
    04:00 +28°C° 0 mm 6 m/s 667 mmHg 16%
    05:00 +28°C° 0 mm 7 m/s 667 mmHg 15%
    06:00 +28°C° 0 mm 8 m/s 668 mmHg 15%
    07:00 +31°C° 0 mm 9 m/s 668 mmHg 14%
    08:00 +33°C° 0 mm 11 m/s 669 mmHg 13%
    09:00 +36°C° 0 mm 13 m/s 669 mmHg 11%
    10:00 +37°C° 0 mm 13 m/s 670 mmHg 10%
    11:00 +38°C° 0 mm 13 m/s 670 mmHg 10%
    12:00 +39°C° 0 mm 13 m/s 670 mmHg 9%
    13:00 +40°C° 0 mm 14 m/s 670 mmHg 8%
    14:00 +40°C° 0 mm 14 m/s 669 mmHg 8%
    15:00 +41°C° 0 mm 14 m/s 669 mmHg 8%
    16:00 +39°C° 0 mm 13 m/s 669 mmHg 8%
    17:00 +38°C° 0 mm 12 m/s 669 mmHg 9%
    18:00 +37°C° 0 mm 11 m/s 669 mmHg 10%
    19:00 +35°C° 0 mm 9 m/s 669 mmHg 11%
    20:00 +33°C° 0 mm 8 m/s 669 mmHg 12%
    21:00 +30°C° 0 mm 7 m/s 670 mmHg 13%
    22:00 +30°C° 0 mm 6 m/s 669 mmHg 14%
    23:00 +29°C° 0 mm 6 m/s 669 mmHg 15%
    Arată mai mult